Tracking 35280 objects as of 7-Sep-2026
HD Live streaming from Space Station
objects crossing your sky now

OBJECT D

Track OBJECT D now!
10-day predictions


NORAD ID: 44882
Int'l Code: 2019-093D
Launch date: December 20, 2019
Source: (TBD)
Launch site: Taiyaun Space Center, China (TSC)

Note: This is a ROCKET BODY
Your satellite tracking list
Your tracking list is empty




NASA's NSSDC Master Catalog

Two Line Element Set (TLE):
1 44882U 19093D   26249.86230501  .00003875  00000-0  26908-3 0  9997
2 44882  97.7936 345.4845 0015128 105.7875 254.5021 15.06077584364906
Source of the keplerian elements: AFSPC